Year,Month,Day,Hour,Minute,Value (Times are PST for temperature in C)
2007,07,04,00,00,11.70
2007,07,04,00,01,11.70
2007,07,04,00,02,11.70
2007,07,04,00,03,11.70
2007,07,04,00,04,11.60
2007,07,04,00,05,11.60
2007,07,04,00,06,11.60
2007,07,04,00,07,11.60
2007,07,04,00,08,11.50
2007,07,04,00,09,11.50
2007,07,04,00,10,11.50
2007,07,04,00,11,11.40
2007,07,04,00,12,11.40
2007,07,04,00,13,11.40
2007,07,04,00,14,11.40
2007,07,04,00,15,11.40
2007,07,04,00,16,11.30
2007,07,04,00,17,11.30
2007,07,04,00,18,11.30
2007,07,04,00,19,11.30
2007,07,04,00,20,11.30
2007,07,04,00,21,11.30
2007,07,04,00,22,11.30
2007,07,04,00,23,11.30
2007,07,04,00,24,11.30
2007,07,04,00,25,11.30
2007,07,04,00,26,11.30
2007,07,04,00,27,11.20
2007,07,04,00,28,11.20
2007,07,04,00,29,11.20
2007,07,04,00,30,11.20
2007,07,04,00,31,11.20
2007,07,04,00,32,11.20
2007,07,04,00,33,11.10
2007,07,04,00,34,11.10
2007,07,04,00,35,11.10
2007,07,04,00,36,11.00
2007,07,04,00,37,11.00
2007,07,04,00,38,10.90
2007,07,04,00,39,10.90
2007,07,04,00,40,10.90
2007,07,04,00,41,10.90
2007,07,04,00,42,10.80
2007,07,04,00,43,10.80
2007,07,04,00,44,10.80
2007,07,04,00,45,10.80
2007,07,04,00,46,10.80
2007,07,04,00,47,10.80
2007,07,04,00,48,10.80
2007,07,04,00,49,10.80
2007,07,04,00,50,10.80
2007,07,04,00,51,10.80
2007,07,04,00,52,10.80
2007,07,04,00,53,10.80
2007,07,04,00,54,10.80
2007,07,04,00,55,10.80
2007,07,04,00,56,10.80
2007,07,04,00,57,10.80
2007,07,04,00,58,10.80
2007,07,04,00,59,10.80
2007,07,04,01,00,10.80
2007,07,04,01,01,10.80
2007,07,04,01,02,10.80
2007,07,04,01,03,10.80
2007,07,04,01,04,10.80
2007,07,04,01,05,10.80
2007,07,04,01,06,10.80
2007,07,04,01,07,10.80
2007,07,04,01,08,10.80
2007,07,04,01,09,10.80
2007,07,04,01,10,10.80
2007,07,04,01,11,10.80
2007,07,04,01,12,10.80
2007,07,04,01,13,10.80
2007,07,04,01,14,10.80
2007,07,04,01,15,10.80
2007,07,04,01,16,10.80
2007,07,04,01,17,10.70
2007,07,04,01,18,10.70
2007,07,04,01,19,10.70
2007,07,04,01,20,10.70
2007,07,04,01,21,10.70
2007,07,04,01,22,10.70
2007,07,04,01,23,10.70
2007,07,04,01,24,10.70
2007,07,04,01,25,10.70
2007,07,04,01,26,10.70
2007,07,04,01,27,10.70
2007,07,04,01,28,10.70
2007,07,04,01,29,10.70
2007,07,04,01,30,10.60
2007,07,04,01,31,10.60
2007,07,04,01,32,10.60
2007,07,04,01,33,10.60
2007,07,04,01,34,10.60
2007,07,04,01,35,10.60
2007,07,04,01,36,10.60
2007,07,04,01,37,10.60
2007,07,04,01,38,10.60
2007,07,04,01,39,10.50
2007,07,04,01,40,10.40
2007,07,04,01,41,10.40
2007,07,04,01,42,10.40
2007,07,04,01,43,10.30
2007,07,04,01,44,10.30
2007,07,04,01,45,10.30
2007,07,04,01,46,10.30
2007,07,04,01,47,10.30
2007,07,04,01,48,10.30
2007,07,04,01,49,10.30
2007,07,04,01,50,10.30
2007,07,04,01,51,10.30
2007,07,04,01,52,10.30
2007,07,04,01,53,10.30
2007,07,04,01,54,10.30
2007,07,04,01,55,10.30
2007,07,04,01,56,10.30
2007,07,04,01,57,10.30
2007,07,04,01,58,10.30
2007,07,04,01,59,10.30
2007,07,04,02,00,10.30
2007,07,04,02,01,10.30
2007,07,04,02,02,10.40
2007,07,04,02,03,10.40
2007,07,04,02,04,10.30
2007,07,04,02,05,10.30
2007,07,04,02,06,10.30
2007,07,04,02,07,10.30
2007,07,04,02,08,10.30
2007,07,04,02,09,10.30
2007,07,04,02,10,10.30
2007,07,04,02,11,10.30
2007,07,04,02,12,10.30
2007,07,04,02,13,10.30
2007,07,04,02,14,10.30
2007,07,04,02,15,10.30
2007,07,04,02,16,10.20
2007,07,04,02,17,10.20
2007,07,04,02,18,10.20
2007,07,04,02,19,10.20
2007,07,04,02,20,10.10
2007,07,04,02,21,10.10
2007,07,04,02,22,10.10
2007,07,04,02,23,10.00
2007,07,04,02,24,10.00
2007,07,04,02,25,9.90
2007,07,04,02,26,9.90
2007,07,04,02,27,9.90
2007,07,04,02,28,9.90
2007,07,04,02,29,9.80
2007,07,04,02,30,9.80
2007,07,04,02,31,9.80
2007,07,04,02,32,9.80
2007,07,04,02,33,9.70
2007,07,04,02,34,9.70
2007,07,04,02,35,9.70
2007,07,04,02,36,9.70
2007,07,04,02,37,9.70
2007,07,04,02,38,9.70
2007,07,04,02,39,9.80
2007,07,04,02,40,9.80
2007,07,04,02,41,9.80
2007,07,04,02,42,9.80
2007,07,04,02,43,9.80
2007,07,04,02,44,9.90
2007,07,04,02,45,10.00
2007,07,04,02,46,10.00
2007,07,04,02,47,10.10
2007,07,04,02,48,10.20
2007,07,04,02,49,10.20
2007,07,04,02,50,10.30
2007,07,04,02,51,10.30
2007,07,04,02,52,10.30
2007,07,04,02,53,10.30
2007,07,04,02,54,10.30
2007,07,04,02,55,10.30
2007,07,04,02,56,10.30
2007,07,04,02,57,10.30
2007,07,04,02,58,10.30
2007,07,04,02,59,10.30
2007,07,04,03,00,10.30
2007,07,04,03,01,10.30
2007,07,04,03,02,10.30
2007,07,04,03,03,10.30
2007,07,04,03,04,10.30
2007,07,04,03,05,10.30
2007,07,04,03,06,10.30
2007,07,04,03,07,10.30
2007,07,04,03,08,10.30
2007,07,04,03,09,10.30
2007,07,04,03,10,10.30
2007,07,04,03,11,10.30
2007,07,04,03,12,10.30
2007,07,04,03,13,10.40
2007,07,04,03,14,10.40
2007,07,04,03,15,10.40
2007,07,04,03,16,10.50
2007,07,04,03,17,10.50
2007,07,04,03,18,10.50
2007,07,04,03,19,10.60
2007,07,04,03,20,10.60
2007,07,04,03,21,10.60
2007,07,04,03,22,10.60
2007,07,04,03,23,10.60
2007,07,04,03,24,10.70
2007,07,04,03,25,10.70
2007,07,04,03,26,10.80
2007,07,04,03,27,10.80
2007,07,04,03,28,10.80
2007,07,04,03,29,10.90
2007,07,04,03,30,11.00
2007,07,04,03,31,11.10
2007,07,04,03,32,11.10
2007,07,04,03,33,11.10
2007,07,04,03,34,11.10
2007,07,04,03,35,11.10
2007,07,04,03,36,11.10
2007,07,04,03,37,11.00
2007,07,04,03,38,11.00
2007,07,04,03,39,10.90
2007,07,04,03,40,10.90
2007,07,04,03,41,10.90
2007,07,04,03,42,10.90
2007,07,04,03,43,10.90
2007,07,04,03,44,10.90
2007,07,04,03,45,10.90
2007,07,04,03,46,10.90
2007,07,04,03,47,10.90
2007,07,04,03,48,10.90
2007,07,04,03,49,10.90
2007,07,04,03,50,10.90
2007,07,04,03,51,10.80
2007,07,04,03,52,10.90
2007,07,04,03,53,10.80
2007,07,04,03,54,10.90
2007,07,04,03,55,10.90
2007,07,04,03,56,10.90
2007,07,04,03,57,10.90
2007,07,04,03,58,10.90
2007,07,04,03,59,10.90
2007,07,04,04,00,10.90
2007,07,04,04,01,10.90
2007,07,04,04,02,11.00
2007,07,04,04,03,11.00
2007,07,04,04,04,11.00
2007,07,04,04,05,11.00
2007,07,04,04,06,11.10
2007,07,04,04,07,11.10
2007,07,04,04,08,11.10
2007,07,04,04,09,11.10
2007,07,04,04,10,11.10
2007,07,04,04,11,11.10
2007,07,04,04,12,11.10
2007,07,04,04,13,11.10
2007,07,04,04,14,11.10
2007,07,04,04,15,11.10
2007,07,04,04,16,11.00
2007,07,04,04,17,11.00
2007,07,04,04,18,11.00
2007,07,04,04,19,10.90
2007,07,04,04,20,10.80
2007,07,04,04,21,10.80
2007,07,04,04,22,10.70
2007,07,04,04,23,10.70
2007,07,04,04,24,10.60
2007,07,04,04,25,10.60
2007,07,04,04,26,10.60
2007,07,04,04,27,10.50
2007,07,04,04,28,10.50
2007,07,04,04,29,10.50
2007,07,04,04,30,10.50
2007,07,04,04,31,10.50
2007,07,04,04,32,10.40
2007,07,04,04,33,10.40
2007,07,04,04,34,10.50
2007,07,04,04,35,10.50
2007,07,04,04,36,10.50
2007,07,04,04,37,10.50
2007,07,04,04,38,10.50
2007,07,04,04,39,10.50
2007,07,04,04,40,10.50
2007,07,04,04,41,10.60
2007,07,04,04,42,10.60
2007,07,04,04,43,10.60
2007,07,04,04,44,10.60
2007,07,04,04,45,10.60
2007,07,04,04,46,10.60
2007,07,04,04,47,10.60
2007,07,04,04,48,10.60
2007,07,04,04,49,10.60
2007,07,04,04,50,10.60
2007,07,04,04,51,10.60
2007,07,04,04,52,10.60
2007,07,04,04,53,10.60
2007,07,04,04,54,10.60
2007,07,04,04,55,10.60
2007,07,04,04,56,10.60
2007,07,04,04,57,10.60
2007,07,04,04,58,10.60
2007,07,04,04,59,10.60
2007,07,04,05,00,10.60
2007,07,04,05,01,10.60
2007,07,04,05,02,10.60
2007,07,04,05,03,10.60
2007,07,04,05,04,10.60
2007,07,04,05,05,10.60
2007,07,04,05,06,10.60
2007,07,04,05,07,10.60
2007,07,04,05,08,10.70
2007,07,04,05,09,10.70
2007,07,04,05,10,10.70
2007,07,04,05,11,10.70
2007,07,04,05,12,10.70
2007,07,04,05,13,10.70
2007,07,04,05,14,10.70
2007,07,04,05,15,10.70
2007,07,04,05,16,10.70
2007,07,04,05,17,10.70
2007,07,04,05,18,10.70
2007,07,04,05,19,10.70
2007,07,04,05,20,10.80
2007,07,04,05,21,10.80
2007,07,04,05,22,10.80
2007,07,04,05,23,10.80
2007,07,04,05,24,10.80
2007,07,04,05,25,10.80
2007,07,04,05,26,10.80
2007,07,04,05,27,10.80
2007,07,04,05,28,10.90
2007,07,04,05,29,10.90
2007,07,04,05,30,10.90
2007,07,04,05,31,10.90
2007,07,04,05,32,10.90
2007,07,04,05,33,10.90
2007,07,04,05,34,10.90
2007,07,04,05,35,10.90
2007,07,04,05,36,10.90
2007,07,04,05,37,10.90
2007,07,04,05,38,10.90
2007,07,04,05,39,10.90
2007,07,04,05,40,10.80
2007,07,04,05,41,10.80
2007,07,04,05,42,10.80
2007,07,04,05,43,10.80
2007,07,04,05,44,10.80
2007,07,04,05,45,10.90
2007,07,04,05,46,10.90
2007,07,04,05,47,10.90
2007,07,04,05,48,10.90
2007,07,04,05,49,10.90
2007,07,04,05,50,10.90
2007,07,04,05,51,10.90
2007,07,04,05,52,10.90
2007,07,04,05,53,10.90
2007,07,04,05,54,10.90
2007,07,04,05,55,10.90
2007,07,04,05,56,10.90
2007,07,04,05,57,10.90
2007,07,04,05,58,10.90
2007,07,04,05,59,10.90
2007,07,04,06,00,10.90
2007,07,04,06,01,10.90
2007,07,04,06,02,10.90
2007,07,04,06,03,10.90
2007,07,04,06,04,10.90
2007,07,04,06,05,10.90
2007,07,04,06,06,10.90
2007,07,04,06,07,10.90
2007,07,04,06,08,11.00
2007,07,04,06,09,11.00
2007,07,04,06,10,11.10
2007,07,04,06,11,11.10
2007,07,04,06,12,11.20
2007,07,04,06,13,11.20
2007,07,04,06,14,11.30
2007,07,04,06,15,11.40
2007,07,04,06,16,11.40
2007,07,04,06,17,11.50
2007,07,04,06,18,11.60
2007,07,04,06,19,11.60
2007,07,04,06,20,11.70
2007,07,04,06,21,11.70
2007,07,04,06,22,11.80
2007,07,04,06,23,11.80
2007,07,04,06,24,11.80
2007,07,04,06,25,11.90
2007,07,04,06,26,11.90
2007,07,04,06,27,11.90
2007,07,04,06,28,12.00
2007,07,04,06,29,12.00
2007,07,04,06,30,12.00
2007,07,04,06,31,12.10
2007,07,04,06,32,12.10
2007,07,04,06,33,12.20
2007,07,04,06,34,12.20
2007,07,04,06,35,12.30
2007,07,04,06,36,12.30
2007,07,04,06,37,12.30
2007,07,04,06,38,12.30
2007,07,04,06,39,12.40
2007,07,04,06,40,12.40
2007,07,04,06,41,12.30
2007,07,04,06,42,12.30
2007,07,04,06,43,12.30
2007,07,04,06,44,12.30
2007,07,04,06,45,12.30
2007,07,04,06,46,12.40
2007,07,04,06,47,12.40
2007,07,04,06,48,12.40
2007,07,04,06,49,12.40
2007,07,04,06,50,12.50
2007,07,04,06,51,12.50
2007,07,04,06,52,12.50
2007,07,04,06,53,12.60
2007,07,04,06,54,12.60
2007,07,04,06,55,12.60
2007,07,04,06,56,12.70
2007,07,04,06,57,12.80
2007,07,04,06,58,12.90
2007,07,04,06,59,13.00
2007,07,04,07,00,13.10
2007,07,04,07,01,13.20
2007,07,04,07,02,13.20
2007,07,04,07,03,13.20
2007,07,04,07,04,13.30
2007,07,04,07,05,13.40
2007,07,04,07,06,13.50
2007,07,04,07,07,13.50
2007,07,04,07,08,13.50
2007,07,04,07,09,13.60
2007,07,04,07,10,13.70
2007,07,04,07,11,13.80
2007,07,04,07,12,13.80
2007,07,04,07,13,13.90
2007,07,04,07,14,13.90
2007,07,04,07,15,14.00
2007,07,04,07,16,13.90
2007,07,04,07,17,13.90
2007,07,04,07,18,13.90
2007,07,04,07,19,13.90
2007,07,04,07,20,13.80
2007,07,04,07,21,13.80
2007,07,04,07,22,13.80
2007,07,04,07,23,13.80
2007,07,04,07,24,13.80
2007,07,04,07,25,13.70
2007,07,04,07,26,13.60
2007,07,04,07,27,13.30
2007,07,04,07,28,13.20
2007,07,04,07,29,13.00
2007,07,04,07,30,12.80
2007,07,04,07,31,12.70
2007,07,04,07,32,12.60
2007,07,04,07,33,12.50
2007,07,04,07,34,12.40
2007,07,04,07,35,12.40
2007,07,04,07,36,12.30
2007,07,04,07,37,12.30
2007,07,04,07,38,12.30
2007,07,04,07,39,12.30
2007,07,04,07,40,12.30
2007,07,04,07,41,12.30
2007,07,04,07,42,12.30
2007,07,04,07,43,12.30
2007,07,04,07,44,12.40
2007,07,04,07,45,12.40
2007,07,04,07,46,12.50
2007,07,04,07,47,12.50
2007,07,04,07,48,12.60
2007,07,04,07,49,12.60
2007,07,04,07,50,12.60
2007,07,04,07,51,12.60
2007,07,04,07,52,12.70
2007,07,04,07,53,12.70
2007,07,04,07,54,12.60
2007,07,04,07,55,12.60
2007,07,04,07,56,12.60
2007,07,04,07,57,12.50
2007,07,04,07,58,12.50
2007,07,04,07,59,12.40
2007,07,04,08,00,12.30
2007,07,04,08,01,12.10
2007,07,04,08,02,12.00
2007,07,04,08,03,11.80
2007,07,04,08,04,11.70
2007,07,04,08,05,11.60
2007,07,04,08,06,11.50
2007,07,04,08,07,11.40
2007,07,04,08,08,11.40
2007,07,04,08,09,11.30
2007,07,04,08,10,11.20
2007,07,04,08,11,11.10
2007,07,04,08,12,11.10
2007,07,04,08,13,11.00
2007,07,04,08,14,10.90
2007,07,04,08,15,11.00
2007,07,04,08,16,11.00
2007,07,04,08,17,10.90
2007,07,04,08,18,10.90
2007,07,04,08,19,10.90
2007,07,04,08,20,10.80
2007,07,04,08,21,10.80
2007,07,04,08,22,10.70
2007,07,04,08,23,10.70
2007,07,04,08,24,10.70
2007,07,04,08,25,10.60
2007,07,04,08,26,10.60
2007,07,04,08,27,10.50
2007,07,04,08,28,10.40
2007,07,04,08,29,10.40
2007,07,04,08,30,10.30
2007,07,04,08,31,10.30
2007,07,04,08,32,10.30
2007,07,04,08,33,10.30
2007,07,04,08,34,10.20
2007,07,04,08,35,10.20
2007,07,04,08,36,10.20
2007,07,04,08,37,10.20
2007,07,04,08,38,10.30
2007,07,04,08,39,10.30
2007,07,04,08,40,10.30
2007,07,04,08,41,10.30
2007,07,04,08,42,10.30
2007,07,04,08,43,10.30
2007,07,04,08,44,10.40
2007,07,04,08,45,10.40
2007,07,04,08,46,10.50
2007,07,04,08,47,10.60
2007,07,04,08,48,10.70
2007,07,04,08,49,10.90
2007,07,04,08,50,11.10
2007,07,04,08,51,11.30
2007,07,04,08,52,11.40
2007,07,04,08,53,11.60
2007,07,04,08,54,11.80
2007,07,04,08,55,11.90
2007,07,04,08,56,12.00
2007,07,04,08,57,12.10
2007,07,04,08,58,12.20
2007,07,04,08,59,12.30
2007,07,04,09,00,12.30
2007,07,04,09,01,12.20
2007,07,04,09,02,12.20
2007,07,04,09,03,12.10
2007,07,04,09,04,12.10
2007,07,04,09,05,12.10
2007,07,04,09,06,12.10
2007,07,04,09,07,12.10
2007,07,04,09,08,12.10
2007,07,04,09,09,12.10
2007,07,04,09,10,12.10
2007,07,04,09,11,12.00
2007,07,04,09,12,12.00
2007,07,04,09,13,12.00
2007,07,04,09,14,12.00
2007,07,04,09,15,12.10
2007,07,04,09,16,12.10
2007,07,04,09,17,12.20
2007,07,04,09,18,12.30
2007,07,04,09,19,12.40
2007,07,04,09,20,12.40
2007,07,04,09,21,12.50
2007,07,04,09,22,12.70
2007,07,04,09,23,12.80
2007,07,04,09,24,12.90
2007,07,04,09,25,13.00
2007,07,04,09,26,13.10
2007,07,04,09,27,13.20
2007,07,04,09,28,13.40
2007,07,04,09,29,13.50
2007,07,04,09,30,13.60
2007,07,04,09,31,13.70
2007,07,04,09,32,13.80
2007,07,04,09,33,13.90
2007,07,04,09,34,13.90
2007,07,04,09,35,14.00
2007,07,04,09,36,14.00
2007,07,04,09,37,13.90
2007,07,04,09,38,13.90
2007,07,04,09,39,13.90
2007,07,04,09,40,13.90
2007,07,04,09,41,13.90
2007,07,04,09,42,14.00
2007,07,04,09,43,14.00
2007,07,04,09,44,14.00
2007,07,04,09,45,14.00
2007,07,04,09,46,13.90
2007,07,04,09,47,13.90
2007,07,04,09,48,13.90
2007,07,04,09,49,13.90
2007,07,04,09,50,13.90
2007,07,04,09,51,14.00
2007,07,04,09,52,14.10
2007,07,04,09,53,14.10
2007,07,04,09,54,14.10
2007,07,04,09,55,14.10
2007,07,04,09,56,14.10
2007,07,04,09,57,14.30
2007,07,04,09,58,14.30
2007,07,04,09,59,14.40
2007,07,04,10,00,14.50
2007,07,04,10,01,14.60
2007,07,04,10,02,14.60
2007,07,04,10,03,14.70
2007,07,04,10,04,14.70
2007,07,04,10,05,14.80
2007,07,04,10,06,14.80
2007,07,04,10,07,14.80
2007,07,04,10,08,14.80
2007,07,04,10,09,14.80
2007,07,04,10,10,14.80
2007,07,04,10,11,14.90
2007,07,04,10,12,14.90
2007,07,04,10,13,14.80
2007,07,04,10,14,14.90
2007,07,04,10,15,14.90
2007,07,04,10,16,15.00
2007,07,04,10,17,15.00
2007,07,04,10,18,14.90
2007,07,04,10,19,14.90
2007,07,04,10,20,14.90
2007,07,04,10,21,15.00
2007,07,04,10,22,15.00
2007,07,04,10,23,15.00
2007,07,04,10,24,15.00
2007,07,04,10,25,15.00
2007,07,04,10,26,14.90
2007,07,04,10,27,14.80
2007,07,04,10,28,14.80
2007,07,04,10,29,14.90
2007,07,04,10,30,15.00
2007,07,04,10,31,15.00
2007,07,04,10,32,15.00
2007,07,04,10,33,15.00
2007,07,04,10,34,15.00
2007,07,04,10,35,15.00
2007,07,04,10,36,15.00
2007,07,04,10,37,15.00
2007,07,04,10,38,15.00
2007,07,04,10,39,15.00
2007,07,04,10,40,14.90
2007,07,04,10,41,14.90
2007,07,04,10,42,14.90
2007,07,04,10,43,14.90
2007,07,04,10,44,14.90
2007,07,04,10,45,14.80
2007,07,04,10,46,14.80
2007,07,04,10,47,14.80
2007,07,04,10,48,14.70
2007,07,04,10,49,14.70
2007,07,04,10,50,14.70
2007,07,04,10,51,14.70
2007,07,04,10,52,14.70
2007,07,04,10,53,14.70
2007,07,04,10,54,14.80
2007,07,04,10,55,14.80
2007,07,04,10,56,14.80
2007,07,04,10,57,14.90
2007,07,04,10,58,14.90
2007,07,04,10,59,15.00
2007,07,04,11,00,14.90
2007,07,04,11,01,15.00
2007,07,04,11,02,15.00
2007,07,04,11,03,15.00
2007,07,04,11,04,15.00
2007,07,04,11,05,15.00
2007,07,04,11,06,15.00
2007,07,04,11,07,15.00
2007,07,04,11,08,15.00
2007,07,04,11,09,15.00
2007,07,04,11,10,15.00
2007,07,04,11,11,15.00
2007,07,04,11,12,15.00
2007,07,04,11,13,15.00
2007,07,04,11,14,15.20
2007,07,04,11,15,15.30
2007,07,04,11,16,15.40
2007,07,04,11,17,15.50
2007,07,04,11,18,15.60
2007,07,04,11,19,15.50
2007,07,04,11,20,15.50
2007,07,04,11,21,15.40
2007,07,04,11,22,15.40
2007,07,04,11,23,15.30
2007,07,04,11,24,15.20
2007,07,04,11,25,15.20
2007,07,04,11,26,15.20
2007,07,04,11,27,15.20
2007,07,04,11,28,15.20
2007,07,04,11,29,15.20
2007,07,04,11,30,15.30
2007,07,04,11,31,15.30
2007,07,04,11,32,15.50
2007,07,04,11,33,15.70
2007,07,04,11,34,15.80
2007,07,04,11,35,15.90
2007,07,04,11,36,15.90
2007,07,04,11,37,16.00
2007,07,04,11,38,16.10
2007,07,04,11,39,16.20
2007,07,04,11,40,16.20
2007,07,04,11,41,16.40
2007,07,04,11,42,16.50
2007,07,04,11,43,16.60
2007,07,04,11,44,16.70
2007,07,04,11,45,16.70
2007,07,04,11,46,16.70
2007,07,04,11,47,16.70
2007,07,04,11,48,16.60
2007,07,04,11,49,16.60
2007,07,04,11,50,16.50
2007,07,04,11,51,16.50
2007,07,04,11,52,16.50
2007,07,04,11,53,16.60
2007,07,04,11,54,16.60
2007,07,04,11,55,16.60
2007,07,04,11,56,16.60
2007,07,04,11,57,16.70
2007,07,04,11,58,16.70
2007,07,04,11,59,16.70
2007,07,04,12,00,16.70
2007,07,04,12,01,16.70
2007,07,04,12,02,16.70
2007,07,04,12,03,16.80
2007,07,04,12,04,16.80
2007,07,04,12,05,17.00
2007,07,04,12,06,17.10
2007,07,04,12,07,17.20
2007,07,04,12,08,17.30
2007,07,04,12,09,17.40
2007,07,04,12,10,17.50
2007,07,04,12,11,17.50
2007,07,04,12,12,17.60
2007,07,04,12,13,17.70
2007,07,04,12,14,17.80
2007,07,04,12,15,17.80
2007,07,04,12,16,17.70
2007,07,04,12,17,17.60
2007,07,04,12,18,17.50
2007,07,04,12,19,17.40
2007,07,04,12,20,17.40
2007,07,04,12,21,17.40
2007,07,04,12,22,17.40
2007,07,04,12,23,17.40
2007,07,04,12,24,17.30
2007,07,04,12,25,17.40
2007,07,04,12,26,17.40
2007,07,04,12,27,17.30
2007,07,04,12,28,17.30
2007,07,04,12,29,17.30
2007,07,04,12,30,17.40
2007,07,04,12,31,17.40
2007,07,04,12,32,17.50
2007,07,04,12,33,17.50
2007,07,04,12,34,17.60
2007,07,04,12,35,17.60
2007,07,04,12,36,17.70
2007,07,04,12,37,17.80
2007,07,04,12,38,17.90
2007,07,04,12,39,18.00
2007,07,04,12,40,18.20
2007,07,04,12,41,18.20
2007,07,04,12,42,18.30
2007,07,04,12,43,18.30
2007,07,04,12,44,18.40
2007,07,04,12,45,18.50
2007,07,04,12,46,18.60
2007,07,04,12,47,18.70
2007,07,04,12,48,18.80
2007,07,04,12,49,19.00
2007,07,04,12,50,19.10
2007,07,04,12,51,19.30
2007,07,04,12,52,19.40
2007,07,04,12,53,19.60
2007,07,04,12,54,19.60
2007,07,04,12,55,19.70
2007,07,04,12,56,19.70
2007,07,04,12,57,19.70
2007,07,04,12,58,19.60
2007,07,04,12,59,19.50
2007,07,04,13,00,19.40
2007,07,04,13,01,19.30
2007,07,04,13,02,19.20
2007,07,04,13,03,19.20
2007,07,04,13,04,19.30
2007,07,04,13,05,19.40
2007,07,04,13,06,19.50
2007,07,04,13,07,19.80
2007,07,04,13,08,20.00
2007,07,04,13,09,20.10
2007,07,04,13,10,20.30
2007,07,04,13,11,20.40
2007,07,04,13,12,20.50
2007,07,04,13,13,20.70
2007,07,04,13,14,20.80
2007,07,04,13,15,20.90
2007,07,04,13,16,20.90
2007,07,04,13,17,20.90
2007,07,04,13,18,21.00
2007,07,04,13,19,21.00
2007,07,04,13,20,21.10
2007,07,04,13,21,21.20
2007,07,04,13,22,21.20
2007,07,04,13,23,21.20
2007,07,04,13,24,21.30
2007,07,04,13,25,21.30
2007,07,04,13,26,21.20
2007,07,04,13,27,21.20
2007,07,04,13,28,21.20
2007,07,04,13,29,21.20
2007,07,04,13,30,21.20
2007,07,04,13,31,21.20
2007,07,04,13,32,21.20
2007,07,04,13,33,21.40
2007,07,04,13,34,21.50
2007,07,04,13,35,21.50
2007,07,04,13,36,21.40
2007,07,04,13,37,21.40
2007,07,04,13,38,21.30
2007,07,04,13,39,21.30
2007,07,04,13,40,21.20
2007,07,04,13,41,21.10
2007,07,04,13,42,21.10
2007,07,04,13,43,21.00
2007,07,04,13,44,21.00
2007,07,04,13,45,20.90
2007,07,04,13,46,20.80
2007,07,04,13,47,20.70
2007,07,04,13,48,20.70
2007,07,04,13,49,20.70
2007,07,04,13,50,20.60
2007,07,04,13,51,20.50
2007,07,04,13,52,20.40
2007,07,04,13,53,20.30
2007,07,04,13,54,20.20
2007,07,04,13,55,20.20
2007,07,04,13,56,20.20
2007,07,04,13,57,20.20
2007,07,04,13,58,20.20
2007,07,04,13,59,20.10
2007,07,04,14,00,20.10
2007,07,04,14,01,20.00
2007,07,04,14,02,20.00
2007,07,04,14,03,20.00
2007,07,04,14,04,20.10
2007,07,04,14,05,20.00
2007,07,04,14,06,20.00
2007,07,04,14,07,20.00
2007,07,04,14,08,19.80
2007,07,04,14,09,19.70
2007,07,04,14,10,19.70
2007,07,04,14,11,19.70
2007,07,04,14,12,19.80
2007,07,04,14,13,19.80
2007,07,04,14,14,19.80
2007,07,04,14,15,19.90
2007,07,04,14,16,20.00
2007,07,04,14,17,20.10
2007,07,04,14,18,20.20
2007,07,04,14,19,20.30
2007,07,04,14,20,20.50
2007,07,04,14,21,20.60
2007,07,04,14,22,20.70
2007,07,04,14,23,20.70
2007,07,04,14,24,20.80
2007,07,04,14,25,20.80
2007,07,04,14,26,20.80
2007,07,04,14,27,20.90
2007,07,04,14,28,21.00
2007,07,04,14,29,21.10
2007,07,04,14,30,21.10
2007,07,04,14,31,21.10
2007,07,04,14,32,21.10
2007,07,04,14,33,21.20
2007,07,04,14,34,21.20
2007,07,04,14,35,21.30
2007,07,04,14,36,21.30
2007,07,04,14,37,21.30
2007,07,04,14,38,21.30
2007,07,04,14,39,21.30
2007,07,04,14,40,21.30
2007,07,04,14,41,21.30
2007,07,04,14,42,21.30
2007,07,04,14,43,21.30
2007,07,04,14,44,21.40
2007,07,04,14,45,21.50
2007,07,04,14,46,21.60
2007,07,04,14,47,21.80
2007,07,04,14,48,21.80
2007,07,04,14,49,21.80
2007,07,04,14,50,21.70
2007,07,04,14,51,21.70
2007,07,04,14,52,21.70
2007,07,04,14,53,21.60
2007,07,04,14,54,21.60
2007,07,04,14,55,21.70
2007,07,04,14,56,21.80
2007,07,04,14,57,21.80
2007,07,04,14,58,21.80
2007,07,04,14,59,21.80
2007,07,04,15,00,21.80
2007,07,04,15,01,22.00
2007,07,04,15,02,22.00
2007,07,04,15,03,22.00
2007,07,04,15,04,21.90
2007,07,04,15,05,21.90
2007,07,04,15,06,22.00
2007,07,04,15,07,22.00
2007,07,04,15,08,22.10
2007,07,04,15,09,22.30
2007,07,04,15,10,22.30
2007,07,04,15,11,22.30
2007,07,04,15,12,22.20
2007,07,04,15,13,22.10
2007,07,04,15,14,22.00
2007,07,04,15,15,21.90
2007,07,04,15,16,21.90
2007,07,04,15,17,22.00
2007,07,04,15,18,22.10
2007,07,04,15,19,22.10
2007,07,04,15,20,22.20
2007,07,04,15,21,22.20
2007,07,04,15,22,22.10
2007,07,04,15,23,22.10
2007,07,04,15,24,22.10
2007,07,04,15,25,22.30
2007,07,04,15,26,22.30
2007,07,04,15,27,22.30
2007,07,04,15,28,22.30
2007,07,04,15,29,22.20
2007,07,04,15,30,22.20
2007,07,04,15,31,22.30
2007,07,04,15,32,22.30
2007,07,04,15,33,22.30
2007,07,04,15,34,22.30
2007,07,04,15,35,22.40
2007,07,04,15,36,22.40
2007,07,04,15,37,22.40
2007,07,04,15,38,22.40
2007,07,04,15,39,22.40
2007,07,04,15,40,22.40
2007,07,04,15,41,22.30
2007,07,04,15,42,22.30
2007,07,04,15,43,22.30
2007,07,04,15,44,22.30
2007,07,04,15,45,22.30
2007,07,04,15,46,22.30
2007,07,04,15,47,22.30
2007,07,04,15,48,22.30
2007,07,04,15,49,22.30
2007,07,04,15,50,22.30
2007,07,04,15,51,22.30
2007,07,04,15,52,22.30
2007,07,04,15,53,22.30
2007,07,04,15,54,22.30
2007,07,04,15,55,22.30
2007,07,04,15,56,22.30
2007,07,04,15,57,22.20
2007,07,04,15,58,22.20
2007,07,04,15,59,22.20
2007,07,04,16,00,22.20
2007,07,04,16,01,22.30
2007,07,04,16,02,22.40
2007,07,04,16,03,22.40
2007,07,04,16,04,22.40
2007,07,04,16,05,22.30
2007,07,04,16,06,22.20
2007,07,04,16,07,22.10
2007,07,04,16,08,22.00
2007,07,04,16,09,21.90
2007,07,04,16,10,21.90
2007,07,04,16,11,21.80
2007,07,04,16,12,21.90
2007,07,04,16,13,21.90
2007,07,04,16,14,21.90
2007,07,04,16,15,22.00
2007,07,04,16,16,22.00
2007,07,04,16,17,22.10
2007,07,04,16,18,22.10
2007,07,04,16,19,22.00
2007,07,04,16,20,22.00
2007,07,04,16,21,22.00
2007,07,04,16,22,22.00
2007,07,04,16,23,21.90
2007,07,04,16,24,21.90
2007,07,04,16,25,21.90
2007,07,04,16,26,22.00
2007,07,04,16,27,22.00
2007,07,04,16,28,22.00
2007,07,04,16,29,22.00
2007,07,04,16,30,21.90
2007,07,04,16,31,21.90
2007,07,04,16,32,21.80
2007,07,04,16,33,21.80
2007,07,04,16,34,21.80
2007,07,04,16,35,21.80
2007,07,04,16,36,21.80
2007,07,04,16,37,21.90
2007,07,04,16,38,21.90
2007,07,04,16,39,21.80
2007,07,04,16,40,21.80
2007,07,04,16,41,21.80
2007,07,04,16,42,21.60
2007,07,04,16,43,21.60
2007,07,04,16,44,21.60
2007,07,04,16,45,21.60
2007,07,04,16,46,21.50
2007,07,04,16,47,21.40
2007,07,04,16,48,21.40
2007,07,04,16,49,21.40
2007,07,04,16,50,21.40
2007,07,04,16,51,21.40
2007,07,04,16,52,21.40
2007,07,04,16,53,21.50
2007,07,04,16,54,21.50
2007,07,04,16,55,21.60
2007,07,04,16,56,21.60
2007,07,04,16,57,21.60
2007,07,04,16,58,21.60
2007,07,04,16,59,21.50
2007,07,04,17,00,21.40
2007,07,04,17,01,21.40
2007,07,04,17,02,21.30
2007,07,04,17,03,21.20
2007,07,04,17,04,21.30
2007,07,04,17,05,21.40
2007,07,04,17,06,21.40
2007,07,04,17,07,21.50
2007,07,04,17,08,21.50
2007,07,04,17,09,21.50
2007,07,04,17,10,21.50
2007,07,04,17,11,21.40
2007,07,04,17,12,21.40
2007,07,04,17,13,21.40
2007,07,04,17,14,21.30
2007,07,04,17,15,21.20
2007,07,04,17,16,21.20
2007,07,04,17,17,21.10
2007,07,04,17,18,21.10
2007,07,04,17,19,21.10
2007,07,04,17,20,21.10